• In Austria
  • List of Countries
  • For 7 days
  • Water Temperature
  • Satellite Maps
  • Weather Map
  • News
  • Weather Widgets
  • user-avatar
    Login

    Hourly Weather Neuquén

    Today, 14 November, Wednesday

    Time Temperature Precipitation Wind Pressure Humidity
    00:00 +15°C° 0 mm 14 mps 730 mmHg 39%
    01:00 +14°C° 0 mm 13 mps 730 mmHg 39%
    02:00 +14°C° 0 mm 13 mps 730 mmHg 39%
    03:00 +14°C° 0 mm 13 mps 730 mmHg 40%
    04:00 +13°C° 0 mm 13 mps 730 mmHg 40%
    05:00 +14°C° 0 mm 13 mps 730 mmHg 38%
    06:00 +15°C° 0 mm 14 mps 731 mmHg 37%
    07:00 +17°C° 0 mm 14 mps 731 mmHg 35%
    08:00 +18°C° 0 mm 14 mps 731 mmHg 33%
    09:00 +20°C° 0 mm 13 mps 731 mmHg 31%
    10:00 +22°C° 0 mm 13 mps 730 mmHg 29%
    11:00 +23°C° 0 mm 12 mps 730 mmHg 26%
    12:00 +26°C° 0 mm 12 mps 730 mmHg 24%
    13:00 +27°C° 0 mm 11 mps 729 mmHg 22%
    14:00 +27°C° 0 mm 11 mps 729 mmHg 21%
    15:00 +27°C° 0 mm 12 mps 728 mmHg 21%
    16:00 +27°C° 0 mm 12 mps 728 mmHg 20%
    17:00 +24°C° 0 mm 11 mps 728 mmHg 23%
    18:00 +23°C° 0 mm 11 mps 728 mmHg 27%
    19:00 +22°C° 0 mm 10 mps 728 mmHg 30%
    20:00 +21°C° 0 mm 10 mps 729 mmHg 33%
    21:00 +19°C° 0 mm 10 mps 729 mmHg 36%
    22:00 +18°C° 0 mm 10 mps 729 mmHg 39%
    23:00 +17°C° 0 mm 9 mps 729 mmHg 41%

    Tomorrow, 15 November, Thursday

    Time Temperature Precipitation Wind Pressure Humidity
    00:00 +17°C° 0 mm 9 mps 728 mmHg 42%
    01:00 +16°C° 0 mm 8 mps 728 mmHg 44%
    02:00 +16°C° 0 mm 8 mps 729 mmHg 45%
    03:00 +15°C° 0 mm 7 mps 729 mmHg 46%
    04:00 +15°C° 0 mm 7 mps 729 mmHg 47%
    05:00 +15°C° 0 mm 8 mps 730 mmHg 41%
    06:00 +14°C° 0 mm 10 mps 731 mmHg 36%
    07:00 +14°C° 0 mm 11 mps 732 mmHg 31%
    08:00 +16°C° 0 mm 10 mps 732 mmHg 26%
    09:00 +17°C° 0 mm 9 mps 732 mmHg 22%
    10:00 +18°C° 0 mm 8 mps 733 mmHg 18%
    11:00 +20°C° 0 mm 8 mps 733 mmHg 16%
    12:00 +21°C° 0 mm 7 mps 733 mmHg 14%
    13:00 +22°C° 0 mm 6 mps 732 mmHg 13%
    14:00 +22°C° 0 mm 6 mps 732 mmHg 12%
    15:00 +23°C° 0 mm 6 mps 732 mmHg 12%
    16:00 +23°C° 0 mm 6 mps 732 mmHg 11%
    17:00 +22°C° 0 mm 5 mps 732 mmHg 12%
    18:00 +21°C° 0 mm 3 mps 732 mmHg 14%
    19:00 +20°C° 0 mm 2 mps 733 mmHg 15%
    20:00 +20°C° 0 mm 2 mps 733 mmHg 16%
    21:00 +19°C° 0 mm 3 mps 734 mmHg 16%
    22:00 +18°C° 0 mm 3 mps 734 mmHg 17%
    23:00 +18°C° 0 mm 4 mps 734 mmHg 19%

    Day after tomorrow, 16 November, Friday

    Time Temperature Precipitation Wind Pressure Humidity
    00:00 +17°C° 0 mm 4 mps 733 mmHg 21%
    01:00 +15°C° 0 mm 4 mps 733 mmHg 23%
    02:00 +15°C° 0 mm 5 mps 732 mmHg 24%
    03:00 +14°C° 0 mm 5 mps 732 mmHg 26%
    04:00 +14°C° 0 mm 5 mps 732 mmHg 28%
    05:00 +15°C° 0 mm 7 mps 732 mmHg 29%
    06:00 +17°C° 0 mm 9 mps 732 mmHg 30%
    07:00 +18°C° 0 mm 11 mps 732 mmHg 31%
    08:00 +21°C° 0 mm 10 mps 732 mmHg 29%
    09:00 +23°C° 0 mm 10 mps 731 mmHg 27%
    10:00 +24°C° 0 mm 10 mps 731 mmHg 25%
    11:00 +26°C° 0 mm 9 mps 730 mmHg 23%
    12:00 +27°C° 0 mm 8 mps 729 mmHg 22%
    13:00 +28°C° 0 mm 6 mps 728 mmHg 21%
    14:00 +27°C° 0 mm 6 mps 728 mmHg 22%
    15:00 +27°C° 0 mm 6 mps 727 mmHg 23%
    16:00 +26°C° 0 mm 5 mps 727 mmHg 24%
    17:00 +24°C° 0.2 mm 6 mps 727 mmHg 29%
    18:00 +22°C° 0.2 mm 7 mps 728 mmHg 34%
    19:00 +20°C° 0.2 mm 8 mps 728 mmHg 39%
    20:00 +18°C° 0.1 mm 9 mps 728 mmHg 39%
    21:00 +17°C° 0.1 mm 9 mps 729 mmHg 38%
    22:00 +16°C° 0.1 mm 10 mps 729 mmHg 37%
    23:00 +16°C° 0 mm 10 mps 729 mmHg 37%

    17 November, Saturday

    Time Temperature Precipitation Wind Pressure Humidity
    00:00 +14°C° 0 mm 11 mps 730 mmHg 37%
    01:00 +13°C° 0 mm 12 mps 730 mmHg 37%
    02:00 +12°C° 0 mm 12 mps 730 mmHg 38%
    03:00 +10°C° 0 mm 12 mps 731 mmHg 40%
    04:00 +9°C° 0 mm 12 mps 731 mmHg 41%
    05:00 +10°C° 0 mm 13 mps 732 mmHg 39%
    06:00 +10°C° 0 mm 13 mps 732 mmHg 37%
    07:00 +12°C° 0 mm 13 mps 733 mmHg 34%
    08:00 +14°C° 0 mm 13 mps 733 mmHg 31%
    09:00 +15°C° 0 mm 13 mps 733 mmHg 28%
    10:00 +18°C° 0 mm 12 mps 734 mmHg 25%
    11:00 +19°C° 0 mm 12 mps 733 mmHg 23%
    12:00 +21°C° 0 mm 11 mps 733 mmHg 22%
    13:00 +22°C° 0 mm 11 mps 733 mmHg 21%
    14:00 +22°C° 0 mm 11 mps 733 mmHg 21%
    15:00 +22°C° 0 mm 11 mps 732 mmHg 21%
    16:00 +21°C° 0 mm 11 mps 732 mmHg 21%
    17:00 +21°C° 0 mm 10 mps 733 mmHg 23%
    18:00 +19°C° 0 mm 9 mps 733 mmHg 25%
    19:00 +18°C° 0 mm 8 mps 733 mmHg 26%
    20:00 +17°C° 0 mm 8 mps 734 mmHg 30%
    21:00 +16°C° 0 mm 9 mps 734 mmHg 33%
    22:00 +16°C° 0 mm 9 mps 734 mmHg 37%
    23:00 +15°C° 0 mm 8 mps 734 mmHg 40%

    18 November, Sunday

    Time Temperature Precipitation Wind Pressure Humidity
    00:00 +13°C° 0 mm 8 mps 734 mmHg 44%
    01:00 +12°C° 0 mm 7 mps 734 mmHg 47%
    02:00 +12°C° 0 mm 8 mps 734 mmHg 47%
    03:00 +11°C° 0 mm 8 mps 734 mmHg 48%
    04:00 +11°C° 0 mm 8 mps 734 mmHg 48%
    05:00 +12°C° 0 mm 8 mps 734 mmHg 43%
    06:00 +15°C° 0 mm 9 mps 734 mmHg 38%
    07:00 +16°C° 0 mm 10 mps 734 mmHg 33%
    08:00 +18°C° 0 mm 10 mps 734 mmHg 29%
    09:00 +19°C° 0 mm 9 mps 734 mmHg 24%
    10:00 +22°C° 0 mm 9 mps 733 mmHg 20%
    11:00 +23°C° 0 mm 9 mps 733 mmHg 19%
    12:00 +26°C° 0 mm 8 mps 732 mmHg 18%
    13:00 +27°C° 0 mm 8 mps 732 mmHg 17%
    14:00 +27°C° 0 mm 8 mps 731 mmHg 18%
    15:00 +28°C° 0 mm 8 mps 731 mmHg 19%
    16:00 +28°C° 0 mm 7 mps 731 mmHg 19%
    17:00 +27°C° 0 mm 7 mps 731 mmHg 22%
    18:00 +26°C° 0 mm 6 mps 731 mmHg 24%
    19:00 +25°C° 0 mm 5 mps 731 mmHg 27%
    20:00 +23°C° 0 mm 6 mps 732 mmHg 30%
    21:00 +22°C° 0 mm 7 mps 732 mmHg 33%
    22:00 +21°C° 0 mm 7 mps 732 mmHg 36%
    23:00 +20°C° 0 mm 6 mps 732 mmHg 38%

    19 November, Monday

    Time Temperature Precipitation Wind Pressure Humidity
    00:00 +20°C° 0 mm 6 mps 731 mmHg 40%
    01:00 +19°C° 0 mm 5 mps 731 mmHg 42%
    02:00 +19°C° 0 mm 4 mps 731 mmHg 44%
    03:00 +18°C° 0 mm 4 mps 731 mmHg 46%
    04:00 +18°C° 0 mm 3 mps 731 mmHg 48%
    05:00 +19°C° 0 mm 3 mps 731 mmHg 44%
    06:00 +21°C° 0 mm 2 mps 731 mmHg 41%
    07:00 +23°C° 0 mm 2 mps 730 mmHg 38%
    08:00 +25°C° 0 mm 3 mps 730 mmHg 34%
    09:00 +26°C° 0 mm 4 mps 729 mmHg 29%
    10:00 +28°C° 0 mm 5 mps 728 mmHg 25%
    11:00 +30°C° 0 mm 5 mps 727 mmHg 22%
    12:00 +32°C° 0 mm 6 mps 726 mmHg 20%
    13:00 +34°C° 0 mm 7 mps 725 mmHg 17%
    14:00 +34°C° 0 mm 8 mps 725 mmHg 16%
    15:00 +36°C° 0 mm 10 mps 724 mmHg 15%
    16:00 +36°C° 0 mm 11 mps 724 mmHg 15%
    17:00 +33°C° 0 mm 12 mps 724 mmHg 18%
    18:00 +29°C° 0 mm 13 mps 725 mmHg 21%
    19:00 +27°C° 0 mm 14 mps 726 mmHg 25%
    20:00 +24°C° 0 mm 13 mps 727 mmHg 28%
    21:00 +22°C° 0 mm 13 mps 727 mmHg 31%
    22:00 +19°C° 0 mm 12 mps 728 mmHg 34%
    23:00 +18°C° 0 mm 12 mps 728 mmHg 36%
    Show more